This is the latest recevied weather packets stored in our database for station/object R2AKT-13. If no packets are shown the sender has not sent any weather packets the latest 10 day(s).
| Time | Temp. | Humidity | Pressure | Rain* | Wind** | Luminosity | Snow |
|---|---|---|---|---|---|---|---|
| 1788136181 | 14.44° C | 88% | 993.5 hPa | - | 0.89 m/s, 175° | - | - |
| 1788135611 | 14.44° C | 88% | 993.5 hPa | - | 0.45 m/s, 182° | - | - |
| 1788135057 | 15° C | 88% | 993.5 hPa | - | 0 m/s | - | - |
| 1788134461 | 14.44° C | 88% | 993.6 hPa | - | 0.45 m/s, 189° | - | - |
| 1788133956 | 14.44° C | 89% | 993.7 hPa | - | 0.89 m/s, 166° | - | - |
| 1788133476 | 14.44° C | 89% | 993.6 hPa | - | 0.45 m/s, 213° | - | - |
| 1788132941 | 14.44° C | 89% | 993.7 hPa | - | 1.79 m/s, 184° | - | - |
| 1788132366 | 14.44° C | 89% | 993.7 hPa | - | 0.89 m/s, 170° | - | - |
| 1788131796 | 14.44° C | 89% | 993.8 hPa | - | 1.34 m/s, 181° | - | - |
| 1788131271 | 14.44° C | 89% | 993.8 hPa | - | 1.79 m/s, 186° | - | - |
| 1788130751 | 14.44° C | 89% | 993.9 hPa | - | 0.89 m/s, 179° | - | - |
| 1788130206 | 14.44° C | 89% | 993.9 hPa | - | 1.34 m/s, 178° | - | - |
| 1788129676 | 14.44° C | 88% | 993.9 hPa | - | 0.45 m/s, 195° | - | - |
| 1788129171 | 14.44° C | 88% | 993.9 hPa | - | 0.45 m/s, 198° | - | - |
| 1788128611 | 14.44° C | 87% | 994 hPa | - | 0.89 m/s, 205° | - | - |
| 1788128131 | 15° C | 86% | 993.9 hPa | - | 1.34 m/s, 205° | - | - |
| 1788127601 | 15° C | 85% | 993.9 hPa | - | 1.34 m/s, 188° | - | - |
| 1788127036 | 15° C | 85% | 993.8 hPa | - | 3.13 m/s, 174° | - | - |
| 1788126556 | 15° C | 85% | 993.8 hPa | - | 3.13 m/s, 173° | - | - |
| 1788126071 | 15° C | 85% | 993.8 hPa | - | 2.24 m/s, 173° | - | - |
| 1788125586 | 15.56° C | 84% | 993.7 hPa | - | 2.24 m/s, 166° | - | - |
| 1788125091 | 15° C | 85% | 993.8 hPa | - | 1.79 m/s, 171° | - | - |
| 1788124521 | 15° C | 86% | 994 hPa | - | 2.68 m/s, 173° | - | - |
| 1788123971 | 15° C | 87% | 994.1 hPa | - | 2.68 m/s, 175° | - | - |
| 1788123376 | 15° C | 87% | 994.3 hPa | - | 1.79 m/s, 173° | - | - |
* Rain since midnight (hover to see other rain measurements)
** Current wind speed in m/s (hover to see current wind gust speed)